#timestamp,LO_Frequency,Hit 
1499853615.4,286045920.9,N
1499853635.3,286045918.2,N
1499853655.1,286045920.2,N
1499853675.9,286045922.7,N
1499853695.7,286045922.7,N
1499853715.5,286045919.7,N
1499853735.4,286045921.0,N
1499853755.2,286045921.0,N
1499853775.0,286045920.5,N
1499853776.0,286045920.5,N
1499853795.8,286045920.6,N
1499853815.6,286045920.6,N
1499853835.5,286045919.7,N
1499853855.3,286045922.4,N
1499853875.1,286045922.7,N
1499853895.9,286045921.9,N
1499853915.7,286045919.7,N
1499853935.6,286045920.4,N
1499853955.4,286045919.7,N
1499853975.2,286045922.0,N
1499853995.1,286045922.6,N
1499853996.0,286045922.6,N
1499854015.8,286045922.5,N
1499854035.7,286045922.5,N
1499854055.5,286045919.8,N
1499854075.3,286045922.2,N
1499854095.2,286045920.3,N
1499854115.0,286045919.8,N
1499854115.9,286045919.8,N
1499854135.7,286045919.7,N
1499854155.6,286045920.1,N
1499854175.4,286045922.7,N
1499854195.3,286045920.4,N
1499854215.1,286045920.9,N
1499854216.0,286045920.9,N
1499854235.8,286045920.1,N
1499854255.7,286045919.8,N
1499854275.5,286045922.1,N
1499854295.4,286045922.0,N
1499854315.2,286045922.0,N
1499854335.0,286045921.6,N
1499854335.9,286045921.6,N
1499854355.8,286045922.0,N
1499854375.6,286045922.1,N
1499854395.4,286045922.2,N
1499854415.3,286045922.4,N
1499854435.1,286045922.3,N
1499854455.9,286045922.0,N
1499854475.7,286045921.8,N
1499854495.5,286045922.4,N
1499854515.4,286045921.6,N
1499854535.2,286045924.4,N
1499854555.0,286045922.1,N
1499854555.9,286045922.1,N
1499854575.8,286045922.0,N
1499854595.6,286045922.5,N
1499854615.5,286045921.8,N
1499854635.3,286045924.4,N
1499854655.1,286045921.4,N
1499854675.9,286045921.5,N
1499854695.7,286045922.3,N
1499854715.5,286045922.6,N
1499854735.4,286045922.4,N
1499854755.2,286045921.7,N
1499854775.1,286045922.5,N
1499854776.0,286045922.5,N
1499854795.8,286045921.5,N
1499854815.6,286045922.1,N
1499854835.5,286045920.2,N
1499854855.3,286045920.7,N
1499854875.2,286045920.4,N
1499854895.9,286045920.3,N
1499854915.7,286045920.6,N
1499854935.6,286045922.0,N
1499854955.4,286045920.2,N
1499854975.2,286045920.5,N
1499854995.1,286045920.1,N
1499854996.0,286045920.1,N
1499855015.8,286045924.4,N
1499855035.7,286045923.9,N
1499855085.5,286045921.6,Y
1499855095.4,286046405.9,N
1499855115.3,286047000.3,N
1499855135.1,286047000.0,N
1499855155.9,286047000.9,N
1499855175.7,286047000.5,N
1499855195.5,286047002.2,N
1499855215.4,286047003.3,N
1499855235.2,286047005.9,N
1499855255.0,286047001.5,N
1499855256.0,286047001.5,N
1499855275.8,286047003.1,N
1499855295.6,286047004.4,N
1499855315.5,286047000.0,N
1499855335.3,286047000.4,N
1499855355.1,286047001.1,N
1499855375.9,286046999.1,N
1499855395.7,286046998.2,N
1499855415.6,286046996.5,N
1499855435.4,286046999.0,N
1499855455.2,286047001.0,N
1499855475.1,286047002.1,N
1499855476.0,286047002.1,N
1499855495.8,286047002.5,N
1499855515.6,286046999.7,N
1499855535.5,286047004.0,N
1499855555.3,286047003.9,N
1499855575.2,286047001.5,N
1499855595.9,286047002.6,N
1499855615.7,286047002.3,N
1499855635.6,286047003.8,N
1499855655.4,286047004.1,N
1499855675.3,286047004.0,N
1499855695.1,286047004.1,N
1499855715.8,286047002.8,N
1499855735.7,286047002.6,N
1499855755.5,286047002.3,N
1499855775.4,286047001.5,N
1499855795.2,286047002.5,N
1499855815.1,286047002.7,N
1499855816.0,286047002.7,N
1499855835.8,286047002.6,N
1499855855.6,286047001.6,N
1499855875.5,286047004.3,N
1499855895.3,286047001.7,N
1499855915.1,286047002.2,N
1499855935.9,286047002.6,N
1499855955.7,286047002.3,N
1499855975.6,286047001.0,N
1499855995.4,286046999.8,N
1499856015.2,286046999.7,N
1499856035.1,286047002.5,N
1499856036.0,286047002.5,N
1499856055.8,286047003.8,N
1499856075.7,286047002.7,N
1499856095.5,286047002.0,N
1499856115.3,286047003.9,N
1499856135.2,286047004.3,N
1499856155.9,286047001.3,N
1499856175.7,286047002.6,N
1499856195.6,286047001.6,N
1499856215.4,286047001.9,N
1499856235.3,286047002.6,N
1499856255.1,286047002.3,N
1499856256.0,286047002.3,N
1499856275.8,286047002.3,N
1499856295.7,286047002.2,N
1499856315.5,286047002.7,N
1499856335.3,286047000.1,N
1499856355.2,286047002.3,N
1499856375.0,286047002.3,N
1499856375.9,286047002.3,N
1499856395.8,286047002.4,N
1499856415.6,286047002.3,N
1499856435.4,286047002.3,N
1499856455.3,286047002.0,N
1499856475.1,286047002.0,N
1499856495.8,286047001.6,N
1499856515.7,286047002.0,N
1499856535.5,286047001.6,N
1499856555.4,286047004.0,N
1499856575.2,286047004.3,N
1499856595.0,286047003.4,N
1499856595.9,286047003.4,N
1499856615.8,286047004.4,N
1499856635.6,286047001.3,N
1499856655.5,286047001.5,N
1499856675.3,286047001.8,N
1499856695.1,286047002.6,N
1499856715.9,286046999.9,N
1499856735.7,286047000.5,N
1499856755.6,286047002.4,N
1499856775.4,286047001.7,N
1499856795.2,286047003.9,N
1499856815.1,286047001.4,N
1499856816.0,286047001.4,N
1499856835.8,286047000.1,N
1499856855.6,286047000.3,N
1499856875.5,286047000.4,N
1499856895.3,286047000.6,N
1499856915.2,286047000.8,N
1499856935.9,286047000.3,N
1499856955.7,286046999.9,N
1499856975.6,286047001.0,N
1499856995.4,286046998.9,N
1499857015.2,286046998.7,N
1499857035.1,286046998.9,N
1499857036.0,286046998.9,N
1499857055.8,286046997.0,N
1499857075.7,286046996.6,N
1499857095.5,286046999.6,N
1499857115.3,286046996.6,N
1499857135.2,286046997.2,N
1499857155.0,286046996.8,N
1499857155.9,286046996.8,N
1499857175.8,286046997.0,N
1499857195.6,286046997.1,N
